Flag for Australia Weather past 2 weeks in Hobart, Tasmania, Australia

57 °F

Partly sunny.

Feels Like: 54 °F
Forecast: 51 / 69 °F
Wind: 14 mph from Northwest

Location: Hobart Airport

Current Time: Nov 28, 2015 at 8:03:37 AM

Latest Report: Nov 28, 2015 at 7:00 AM

Visibility: N/A

Pressure: 29.89 "Hg

Humidity: 55%

Dew point: 41 °F

Location of HobartLocation

Historic Weather in Hobart — Graph


Hobart temperature yesterday

Maximum temperature yesterday: 63 °F (at 2:00 PM)
Minimum temperature yesterday: 43 °F (at 12:00 AM)
Average temperature yesterday: 53 °F

Past Weeks' High & Low Weather Summary

High79 °F (Nov 19, 10:00 AM)100% (Nov 16, 6:00 AM)30.18 "Hg (Nov 16, 6:00 AM)
Low43 °F (Nov 16, 6:00 AM)15% (Nov 19, 5:30 PM)29.12 "Hg (Nov 25, 7:00 PM)
Average59 °F54%29.77 "Hg
* Reported Nov 13 7:00 AM — Nov 28 7:00 AM, Hobart, Weather by CustomWeather, © 2015

Note: Actual official high and low records may vary slightly from our data, if they occured in-between our weather recording intervals... More about our weather records


Hobart weather history for previous 24 hours

Time TempWeatherWind HumidityBarometerVisibility
7:00 AM
Sat, Nov 28
57 °FPartly sunny.14 mph55%29.89 "HgN/A
6:30 AM55 °FBroken clouds.13 mph59%29.89 "HgN/A
6:00 AM55 °FPartly sunny.12 mph59%29.89 "HgN/A
5:30 AM54 °FPartly sunny.12 mph63%29.86 "HgN/A
5:00 AM55 °FMostly cloudy.13 mph59%29.86 "HgN/A
4:30 AM54 °FPassing clouds.9 mph63%29.86 "HgN/A
4:00 AM54 °FPassing clouds.12 mph63%29.83 "HgN/A
3:30 AM55 °FPassing clouds.13 mph63%29.83 "HgN/A
3:00 AM55 °FPassing clouds.15 mph59%29.83 "HgN/A
2:00 AM55 °FPassing clouds.14 mph59%29.83 "HgN/A
1:30 AM55 °FPassing clouds.15 mph63%29.80 "HgN/A
1:00 AM55 °FPassing clouds.17 mph63%29.80 "HgN/A
12:30 AM55 °FPassing clouds.15 mph59%29.83 "HgN/A
12:00 AM55 °FPassing clouds.15 mph59%29.80 "HgN/A
11:00 PM
Fri, Nov 27
57 °FPassing clouds.13 mph51%29.80 "HgN/A
10:00 PM57 °FPassing clouds.14 mph48%29.80 "HgN/A
9:30 PM57 °FPassing clouds.15 mph48%29.80 "HgN/A
9:00 PM57 °FPassing clouds.17 mph48%29.77 "HgN/A
8:30 PM57 °FPassing clouds.18 mph48%29.77 "HgN/A
8:00 PM57 °FPartly sunny.20 mph48%29.77 "HgN/A
7:48 PM57 °FScattered clouds.21 mph44%29.74 "HgN/A
7:00 PM59 °FBroken clouds.22 mph42%29.74 "HgN/A
6:30 PM61 °FBroken clouds.21 mph36%29.74 "HgN/A
6:00 PM59 °FSunny.22 mph42%29.74 "Hg10 mi
5:00 PM63 °FSunny.22 mph34%29.71 "Hg10 mi
4:00 PM63 °FSunny.25 mph32%29.68 "Hg10 mi
3:30 PM61 °FSunny.18 mph34%29.68 "Hg10 mi
3:00 PM61 °FSunny.20 mph31%29.71 "Hg10 mi
2:00 PM63 °FScattered clouds.24 mph27%29.71 "HgN/A
1:30 PM61 °FScattered showers. Scattered clouds.24 mph36%29.71 "HgN/A
1:00 PM61 °FScattered showers. Scattered clouds.22 mph29%29.71 "HgN/A
12:30 PM59 °FScattered showers. Partly sunny.23 mph36%29.71 "HgN/A
12:00 PM59 °FScattered clouds.22 mph36%29.71 "HgN/A
11:00 AM57 °FScattered showers. Scattered clouds.21 mph39%29.71 "HgN/A
10:00 AM55 °FScattered clouds.20 mph38%29.71 "HgN/A
9:00 AM55 °FScattered clouds.17 mph41%29.71 "HgN/A
8:55 AM55 °FScattered clouds.17 mph38%29.71 "HgN/A
8:30 AM54 °FPassing clouds.17 mph44%29.71 "HgN/A
8:00 AM50 °FPassing clouds.16 mph50%29.71 "HgN/A
Weather by CustomWeather, © 2015

See weather overviewHow to use our weather pages